GW4411 Weather Reports


time (UTC)temp
C
wind
direction
speed
KPH
gust
KPH
rain 1hr
cm
rain 24hr
cm
rain mn
cm
humidity
%
barometer
mb
20260510045408 24 118 1.6 8.0 0.00 0.00 0.00 66 1023.7
20260510044505 24 127 1.6 6.4 0.00 0.00 0.00 65 1023.8
20260510043603 24 153 3.2 8.0 0.00 0.00 0.00 64 1023.7
20260510042704 24 162 1.6 8.0 0.00 0.00 0.00 65 1023.7
20260510041804 24 164 1.6 8.0 0.00 0.00 0.00 64 1023.6
20260510040904 24 143 3.2 8.0 0.00 0.00 0.00 65 1023.8
20260510040008 24 117 1.6 8.0 0.00 0.00 0.00 65 1023.8
20260510040006 24 117 1.6 8.0 0.00 0.00 0.00 65 1023.8
20260510035404 24 96 1.6 3.2 0.00 0.00 0.00 64 1023.8
20260510034504 25 124 1.6 3.2 0.00 0.00 0.00 64 1023.8
20260510033604 23 147 1.6 6.4 0.00 0.00 0.00 67 1023.8
20260510032704 23 170 3.2 8.0 0.00 0.00 0.00 67 1023.8
20260510032018 24 177 4.8 8.0 0.00 0.00 0.00 65 1023.9
20260510031804 24 178 3.2 8.0 0.00 0.00 0.00 65 1023.9
20260510031119 24 232 3.2 6.4 0.00 0.00 0.00 66 1023.9
20260510030903 24 233 3.2 6.4 0.00 0.00 0.00 65 1023.9
20260510030005 25 219 3.2 8.0 0.00 0.00 0.00 64 1024.0
20260510025408 25 216 6.4 14.5 0.00 0.00 0.00 64 1024.1
20260510024505 25 196 4.8 9.7 0.00 0.00 0.00 63 1024.3
20260510023604 24 194 4.8 22.5 0.00 0.00 0.00 65 1024.2
20260510022923 25 209 9.7 22.5 0.00 0.00 0.00 64 1024.3
20260510022711 25 107 3.2 8.0 0.00 0.00 0.00 64 1024.3
20260510021809 25 150 3.2 9.7 0.00 0.00 0.00 63 1024.3
20260510020904 25 181 4.8 11.3 0.00 0.00 0.00 62 1024.4
20260510020005 25 191 8.0 19.3 0.00 0.00 0.00 64 1024.4
20260510015618 25 193 6.4 17.7 0.00 0.00 0.00 64 1024.4
20260510014505 25 188 6.4 19.3 0.00 0.00 0.00 64 1024.6
20260510013604 24 171 6.4 16.1 0.00 0.00 0.00 67 1024.9
20260510012704 23 154 4.8 16.1 0.00 0.00 0.00 68 1025.2
20260510011804 23 144 3.2 8.0 0.00 0.00 0.00 67 1025.2
20260510010904 23 177 6.4 11.3 0.00 0.00 0.00 66 1025.5
20260510010009 23 211 6.4 16.1 0.00 0.00 0.00 66 1025.5
20260510005406 23 210 6.4 14.5 0.00 0.00 0.00 66 1025.5
20260510004723 23 199 4.8 9.7 0.00 0.00 0.00 67 1025.7
20260510003606 23 182 4.8 9.7 0.00 0.00 0.00 68 1025.6
20260510002705 23 194 6.4 11.3 0.00 0.00 0.00 67 1025.9
20260510001813 22 191 6.4 17.7 0.00 0.00 0.00 68 1025.9
20260510000903 22 183 6.4 11.3 0.00 0.00 0.00 69 1025.9
20260510000236 22 184 6.4 9.7 0.00 0.00 0.00 70 1025.8
20260509235417 21 184 4.8 11.3 0.00 0.00 0.00 72 1026.0
20260509234721 21 189 6.4 14.5 0.00 0.00 0.00 71 1026.0
20260509233823 20 195 4.8 9.7 0.00 0.00 0.00 72 1026.0
20260509232705 20 194 6.4 9.7 0.00 0.00 0.00 73 1025.9
20260509231804 20 195 6.4 16.1 0.00 0.00 0.00 73 1025.9
20260509231118 20 190 6.4 16.1 0.00 0.00 0.00 73 1025.9
20260509230010 20 185 6.4 14.5 0.00 0.00 0.00 74 1025.5
20260509225404 20 179 8.0 17.7 0.00 0.00 0.00 73 1025.3
20260509224507 20 191 8.0 17.7 0.00 0.00 0.00 73 1025.2
20260509223604 19 192 6.4 16.1 0.00 0.00 0.00 75 1025.2
20260509222704 18 203 4.8 9.7 0.00 0.00 0.00 81 1025.2
20260509221805 17 195 4.8 9.7 0.00 0.00 0.00 85 1025.0
20260509220908 16 208 1.6 6.4 0.00 0.00 0.00 90 1025.0
20260509220006 15 195 1.6 6.4 0.00 0.00 0.00 94 1024.8
20260509215408 14 190 1.6 8.0 0.00 0.00 0.00 95 1024.8
20260509214506 13 0 0.0 0.0 0.00 0.00 0.00 96 1024.7
20260509213823 13 0 0.0 0.0 0.00 0.00 0.00 96 1024.7
20260509212705 12 0 0.0 0.0 0.00 0.00 0.00 96 1024.7
20260509211804 12 0 0.0 0.0 0.00 0.00 0.00 95 1024.6
20260509210908 11 0 0.0 0.0 0.00 0.00 0.00 95 1024.5
20260509210006 11 0 0.0 0.0 0.00 0.00 0.00 95 1024.3
20260509205404 11 0 0.0 0.0 0.00 0.00 0.00 95 1024.3
20260509204506 11 0 0.0 0.0 0.00 0.00 0.00 95 1024.0
20260509203608 11 0 0.0 0.0 0.00 0.00 0.00 95 1023.9
20260509202704 11 0 0.0 0.0 0.00 0.00 0.00 95 1023.9
20260509201808 11 265 0.0 1.6 0.00 0.00 0.00 95 1023.7
20260509200904 11 0 0.0 0.0 0.00 0.00 0.00 94 1023.6
20260509200233 11 0 0.0 0.0 0.00 0.00 0.00 94 1023.6
20260509195405 11 0 0.0 0.0 0.00 0.00 0.00 95 1023.5
20260509194506 11 0 0.0 0.0 0.00 0.00 0.00 95 1023.6
20260509193610 11 0 0.0 0.0 0.00 0.00 0.00 95 1023.6
20260509192724 11 265 0.0 3.2 0.00 0.00 0.00 95 1023.6
20260509191805 11 265 0.0 1.6 0.00 0.00 0.00 95 1023.5
20260509190007 11 265 1.6 6.4 0.00 0.00 0.00 95 1023.2
20260509185408 11 264 1.6 6.4 0.00 0.00 0.00 95 1023.2
20260509184511 11 0 0.0 0.0 0.00 0.00 0.00 95 1023.2
20260509183834 11 0 0.0 0.0 0.00 0.00 0.00 95 1023.1
20260509182709 11 0 0.0 0.0 0.00 0.00 0.00 95 1023.1
20260509181822 11 0 0.0 0.0 0.00 0.00 0.00 95 1023.1
20260509180911 11 0 0.0 0.0 0.00 0.00 0.00 95 1023.0
20260509180016 11 261 0.0 1.6 0.00 0.00 0.00 95 1023.1
20260509175403 11 261 0.0 1.6 0.00 0.00 0.00 95 1023.0
20260509174505 11 0 0.0 0.0 0.00 0.00 0.00 95 1023.1
20260509173615 11 0 0.0 0.0 0.00 0.00 0.00 95 1023.0
20260509172704 11 260 1.6 3.2 0.00 0.00 0.00 95 1023.0
20260509171812 11 0 0.0 0.0 0.00 0.00 0.00 94 1023.1
20260509170910 11 0 0.0 0.0 0.00 0.00 0.00 94 1022.9
20260509165407 11 0 0.0 0.0 0.00 0.00 0.00 94 1023.0
20260509164506 11 0 0.0 0.0 0.00 0.00 0.00 94 1023.0
20260509163609 11 0 0.0 0.0 0.00 0.00 0.00 94 1022.9
20260509162705 11 0 0.0 0.0 0.00 0.00 0.00 94 1023.2
20260509162019 11 0 0.0 0.0 0.00 0.00 0.00 94 1023.0
20260509161118 11 0 0.0 0.0 0.00 0.00 0.00 93 1023.0
20260509160006 11 0 0.0 0.0 0.00 0.00 0.00 93 1023.0
20260509155631 11 0 0.0 0.0 0.00 0.00 0.00 93 1023.0
20260509154511 11 0 0.0 0.0 0.00 0.00 0.00 93 1023.1
20260509153604 11 0 0.0 0.0 0.00 0.00 0.00 93 1023.1
20260509152718 11 0 0.0 0.0 0.00 0.00 0.00 93 1023.1
20260509151804 11 0 0.0 0.0 0.00 0.00 0.00 93 1023.3
20260509150913 11 0 0.0 0.0 0.00 0.00 0.00 93 1023.4
20260509150006 11 0 0.0 0.0 0.00 0.00 0.00 93 1023.3
20260509145404 11 0 0.0 0.0 0.00 0.00 0.00 93 1023.3
20260509144505 12 0 0.0 0.0 0.00 0.00 0.00 93 1023.3
20260509143604 12 0 0.0 0.0 0.00 0.00 0.00 92 1023.2
20260509142922 12 272 0.0 1.6 0.00 0.00 0.00 92 1023.2
20260509141818 12 0 0.0 0.0 0.00 0.00 0.00 92 1023.3
20260509141117 12 0 0.0 0.0 0.00 0.00 0.00 92 1023.3
20260509140010 12 0 0.0 0.0 0.00 0.00 0.00 92 1023.3
20260509135404 12 280 0.0 1.6 0.00 0.00 0.00 92 1023.4
20260509134504 12 289 0.0 1.6 0.00 0.00 0.00 92 1023.5
20260509133604 12 289 0.0 1.6 0.00 0.00 0.00 92 1023.5
20260509132708 12 0 0.0 0.0 0.00 0.00 0.00 91 1023.6
20260509131804 12 0 0.0 0.0 0.00 0.00 0.00 91 1023.8
20260509130905 12 0 0.0 0.0 0.00 0.00 0.00 91 1023.8
20260509130005 12 0 0.0 0.0 0.00 0.00 0.00 91 1023.8
20260509125404 12 0 0.0 0.0 0.00 0.00 0.00 91 1023.8
20260509124505 12 0 0.0 0.0 0.00 0.00 0.00 90 1023.6
20260509123822 12 0 0.0 0.0 0.00 0.00 0.00 90 1023.7
20260509122703 12 289 0.0 1.6 0.00 0.00 0.00 90 1023.8
20260509122023 12 0 0.0 0.0 0.00 0.00 0.00 89 1023.7
20260509120903 13 0 0.0 0.0 0.00 0.00 0.00 89 1023.8
20260509120006 13 0 0.0 0.0 0.00 0.00 0.00 89 1023.7
20260509115403 13 0 0.0 0.0 0.00 0.00 0.00 89 1023.8
20260509114505 13 0 0.0 0.0 0.00 0.00 0.00 88 1023.9
20260509113603 13 0 0.0 0.0 0.00 0.00 0.00 88 1023.9
20260509112704 13 0 0.0 0.0 0.00 0.00 0.00 88 1023.8
20260509111814 13 0 0.0 0.0 0.00 0.00 0.00 87 1023.7
20260509110908 13 0 0.0 0.0 0.00 0.00 0.00 87 1023.9
20260509110005 13 0 0.0 0.0 0.00 0.00 0.00 87 1023.7
20260509105408 13 0 0.0 0.0 0.00 0.00 0.00 87 1023.7
20260509104505 13 0 0.0 0.0 0.00 0.00 0.00 86 1023.7
20260509103608 13 289 0.0 1.6 0.00 0.00 0.00 86 1023.6
20260509102704 14 289 0.0 1.6 0.00 0.00 0.00 86 1023.6
20260509101803 14 0 0.0 0.0 0.00 0.00 0.00 85 1023.6
20260509100904 14 0 0.0 0.0 0.00 0.00 0.00 85 1023.5
20260509100005 14 0 0.0 0.0 0.00 0.00 0.00 84 1023.5
20260509095408 14 289 0.0 1.6 0.00 0.00 0.00 84 1023.5
20260509094730 14 289 0.0 1.6 0.00 0.00 0.00 83 1023.4
20260509093604 15 0 0.0 0.0 0.00 0.00 0.00 83 1023.3
20260509092919 15 289 0.0 1.6 0.00 0.00 0.00 82 1023.2
20260509091808 15 0 0.0 0.0 0.00 0.00 0.00 82 1023.0
20260509090904 15 0 0.0 0.0 0.00 0.00 0.00 82 1022.9
20260509090007 15 289 0.0 1.6 0.00 0.00 0.00 82 1022.8
20260509085403 15 289 0.0 1.6 0.00 0.00 0.00 81 1022.6
20260509084505 16 0 0.0 0.0 0.00 0.00 0.00 80 1022.4
20260509083605 16 290 0.0 1.6 0.00 0.00 0.00 80 1022.3
20260509082018 16 0 0.0 0.0 0.00 0.00 0.00 78 1022.1
20260509080904 17 290 0.0 1.6 0.00 0.00 0.00 77 1022.0
20260509080005 17 296 1.6 3.2 0.00 0.00 0.00 76 1021.9
20260509075622 17 315 0.0 3.2 0.00 0.00 0.00 76 1021.9
20260509074510 18 0 0.0 0.0 0.00 0.00 0.00 75 1021.8
20260509073603 18 0 0.0 0.0 0.00 0.00 0.00 73 1021.8
20260509072918 18 0 0.0 0.0 0.00 0.00 0.00 72 1021.7
20260509071808 20 0 0.0 0.0 0.00 0.00 0.00 71 1021.6
20260509070903 20 0 0.0 0.0 0.00 0.00 0.00 69 1021.7
20260509070007 20 0 0.0 0.0 0.00 0.00 0.00 68 1021.5
20260509065404 21 6 0.0 3.2 0.00 0.00 0.00 67 1021.4
20260509064505 21 38 0.0 6.4 0.00 0.00 0.00 66 1021.3
20260509063604 21 62 0.0 1.6 0.00 0.00 0.00 62 1021.0
20260509062918 21 64 0.0 1.6 0.00 0.00 0.00 60 1020.9
20260509061808 22 0 0.0 0.0 0.00 0.00 0.00 61 1020.9
20260509060904 22 0 0.0 0.0 0.00 0.00 0.00 58 1020.8
20260509060218 22 89 0.0 1.6 0.00 0.00 0.00 57 1020.7
20260509055403 22 103 0.0 3.2 0.00 0.00 0.00 55 1020.7
20260509054504 22 108 0.0 1.6 0.00 0.00 0.00 55 1020.6
20260509053825 23 125 0.0 1.6 0.00 0.00 0.00 55 1020.6
20260509053604 23 125 0.0 1.6 0.00 0.00 0.00 55 1020.6
20260509052704 23 95 1.6 6.4 0.00 0.00 0.00 54 1020.5
20260509051803 23 86 1.6 6.4 0.00 0.00 0.00 52 1020.5
20260509050903 24 108 3.2 9.7 0.00 0.00 0.00 51 1020.5
20260509050009 24 115 3.2 9.7 0.00 0.00 0.00 51 1020.4